Location: Pasarilla del Rebollar
(40.6790°N, 5.0062°W)
Time: 11:52:17
(UTC+00:00)

COSMOS 2428 - Pass Details

Date: 22 April 2026
Orbit: 844 x 855 km, 70.9° (Epoch: 21 May)

Event Time Altitude Azimuth Distance (km) Brightness Sun altitude
Rises 03:57:46 0° 340° (NNW) 3,428 6.0 -16.8°
Reaches altitude 10° 04:00:19 10° 346° (NNW) 2,487 5.4 -16.4°
Maximum altitude 04:05:52 50° 62° (ENE) 1,074 3.7 -15.6°
Drops below altitude 10° 04:11:21 10° 137° (SE) 2,465 5.3 -14.7°
Sets 04:13:52 0° 143° (SE) 3,395 5.9 -14.3°
